Home > Time Zones > World Clock > Weather > India > Mau > Past weeks

Flag for India Weather past 2 weeks in Mau, Uttar Pradesh, India

Now
84 °F

Broken clouds.


Feels Like: 96 °F
Forecast: 83 / 98 °F
Wind: No wind

Location: Varanasi / Babatpur

Current Time: Jul 26, 2014 at 10:44:17 AM

Latest Report: Jul 26, 2014 at 9:00 AM


Visibility: 2 mi

Pressure: 29.65 "Hg

Humidity: 84%

Dew point: 79 °F

Location of MauLocation

Historic Weather in Mau — Graph

°F

Mau temperature yesterday

Maximum temperature yesterday: 93 °F (at 4:00 PM)
Minimum temperature yesterday: 81 °F (at 6:00 AM)
Average temperature yesterday: 87 °F

Past Weeks' High & Low Weather Summary

 TemperatureHumidityPressure
High102 °F (Jul 12, 4:00 AM)100% (Jul 17, 6:00 PM)29.65 "Hg (Jul 17, 6:00 PM)
Low77 °F (Jul 24, 4:00 AM)48% (Jul 12, 4:00 AM)29.33 "Hg (Jul 19, 4:00 PM)
Average87 °F77%29.47 "Hg
* Reported Jul 11 11:00 AM — Jul 26 9:00 AM, Mau, Weather by CustomWeather, © 2014

Note: Actual official high and low records may vary slightly from our data, if they occured in-between our weather recording intervals... More about our weather records

Advertising

Mau weather history for previous 24 hours

 ConditionsComfort  
Time TempWeatherWind HumidityBarometerVisibility
9:00 AM
Jul 26
84 °FBroken clouds.No wind84%29.65 "Hg2 mi
7:00 AM82 °FBroken clouds.No wind94%29.62 "Hg3 mi
6:00 AM82 °FBroken clouds.No wind94%29.62 "Hg3 mi
12:00 AM86 °FPassing clouds.No wind75%29.62 "Hg3 mi
11:00 PM
Jul 25
86 °FPassing clouds.No wind75%29.62 "Hg3 mi
10:00 PM86 °FPassing clouds.No wind75%29.62 "Hg3 mi
9:00 PM88 °FPassing clouds.No wind70%29.59 "Hg3 mi
8:00 PM90 °FPassing clouds.No wind67%29.59 "Hg3 mi
7:00 PM90 °FScattered clouds.No wind67%29.53 "Hg4 mi
6:00 PM90 °FScattered clouds.No wind67%29.53 "Hg4 mi
5:00 PM91 °FScattered clouds.1 mph59%29.53 "Hg4 mi
4:00 PM93 °FScattered clouds.1 mph56%29.53 "Hg4 mi
2:00 PM91 °FScattered clouds.1 mph63%29.59 "Hg4 mi
1:00 PM90 °FPartly sunny.5 mph67%29.59 "Hg4 mi
12:00 PM90 °FScattered clouds.No wind67%29.62 "Hg4 mi
11:00 AM88 °FPartly sunny.2 mph66%29.62 "Hg4 mi
Weather by CustomWeather, © 2014

See weather overviewHow to use our weather pages